filepicker.io alexa rank chart, filepicker.io alexa rank daily changes

filepicker.io alexa rank chart, filepicker.io alexa rank daily changes

filepicker.io
Actual rank:
35 869

RANK HISTORY

Date Rank Diff
2017/05/26 35 869 +291
2017/05/25 35 578 -195
2017/05/24 35 773 -100
2017/05/23 35 873 +277
2017/05/22 35 596 +345
2017/05/21 35 251 +2
2017/05/20 35 249 -211
2017/05/19 35 460 +250
2017/05/18 35 210 -259
2017/05/17 35 469 -289
2017/05/16 35 758 +220
2017/05/15 35 538 +301
2017/05/14 35 237 +679
2017/05/13 34 558 +119
2017/05/12 34 439 +128
2017/05/11 34 311 -52
2017/05/10 34 363 -213
2017/05/09 34 576 -75
2017/05/08 34 651 +715
2017/05/07 33 936 +163
2017/05/06 33 773 +138
2017/05/05 33 635 +587
2017/05/04 33 048 -277
2017/05/03 33 325 +25
2017/05/02 33 300 +135
2017/05/01 33 165 +386
2017/04/30 32 779 +257
2017/04/29 32 522 +140
2017/04/28 32 382 +230
2017/04/27 32 152 -12
2017/04/26 32 164 -256
2017/04/25 32 420 +740
2017/04/24 31 680 +273
2017/04/23 31 407 +71
2017/04/22 31 336 +338
2017/04/21 30 998 +94
2017/04/20 30 904 -117
2017/04/19 31 021 -145
2017/04/18 31 166 +351
2017/04/17 30 815 +429
2017/04/16 30 386 +140
2017/04/15 30 246 +330
2017/04/14 29 916 -516
2017/04/13 30 432 +88
2017/04/12 30 344 +89
2017/04/11 30 255 +244
2017/04/10 30 011 +113
2017/04/09 29 898 +250
2017/04/08 29 648 -412
2017/04/07 30 060 +35
2017/04/06 30 025 -116
2017/04/05 30 141 -291
2017/04/04 30 432 +479
2017/04/03 29 953 +394
2017/04/02 29 559 +72
2017/04/01 29 487 +107
2017/03/31 29 380 -38
2017/03/30 29 418 +15
2017/03/29 29 403 -230
2017/03/28 29 633 -538
2017/03/27 30 171

WIDGET FOR YOUR SITE

DOMAINS WITH THE NEAREST RANK

Domain Rank
sp.edu.sg 35 864
pokehuntr.com 35 865
zulu.id 35 866
todaysparent.com 35 867
mojtv.hr 35 868
filepicker.io 35 869
gov.mb.ca 35 870
news.bg 35 871
3wj.com 35 872
storyjumper.com 35 873
bokra.top 35 874

DOMAINS WITH THE NEAREST RANK BY TLD .io

Domain Rank
compressor.io 34 665
libraries.io 35 033
codedump.io 35 189
spaceone.io 35 301
converto.io 35 420
filepicker.io 35 869
generals.io 36 106
mushusei.io 36 567
apiary.io 36 580
devdocs.io 36 830
ubersuggest.io 36 940